Lancaster, PA

2:55 AM EDT on October 18, 2017 (GMT -0400)
Lancaster

Weather History for KLNS - April, 2013

Change the Weather History Date:

Saturday, April 27, 2013

  Actual Average Record
Temperature  
Mean Temperature 51 °F -  
Max Temperature 66 °F 68 °F 90 °F (1990)
Min Temperature 36 °F 43 °F 32 °F (1987)
Degree Days  
Heating Degree Days 14    
Growing Degree Days 1 (Base 50)    
Moisture  
Dew Point 33 °F    
Average Humidity 50    
Maximum Humidity 79    
Minimum Humidity 28    
Precipitation  
Precipitation 0.00 in - - ()
Sea Level Pressure  
Sea Level Pressure 30.37 in    
Wind  
Wind Speed 2 mph (SE)    
Max Wind Speed 7 mph    
Max Gust Speed -    
Visibility 10 miles    
Events      
Averages and records for this station are not official NWS values.
T = Trace of Precipitation, MM = Missing Value Source: NWS Daily Summary

Daily Weather History Graph

Daily Weather History Graph

Search for Another Location

Airport or City:

Trip Planner

Search our weather history database for the weather conditions in past years. The results will help you decide how hot, cold, wet, or windy it might be!

Date:

Astronomy

Apr. 27, 2013 Rise Set
Actual Time 6:09 AM EDT 7:56 PM EDT
Civil Twilight 5:40 AM EDT 8:25 PM EDT
Nautical Twilight 5:05 AM EDT 9:00 PM EDT
Astronomical Twilight 4:28 AM EDT 9:38 PM EDT
Moon 10:23 PM EDT (4/27) 7:26 AM EDT (4/27)
Length of Visible Light 14h 44m
Length of Day
13h 46m
Waning Gibbous, 95% of the Moon is Illuminated
Apr 27
Waning Gibbous
May 2
Last Quarter
May 9
New
May 18
First Quarter
May 25
Full

Hourly Weather History & Observations

Time (EDT) Temp. Windchill Dew Point Humidity Pressure Visibility Wind Dir Wind Speed Gust Speed Precip Events Conditions
12:53 AM 41.0 °F 39.0 °F 32.0 °F 70% 30.41 in 10.0 mi East 3.5 mph - N/A   Clear
1:53 AM 39.0 °F 36.8 °F 32.0 °F 76% 30.41 in 10.0 mi ESE 3.5 mph - N/A   Clear
2:53 AM 39.0 °F - 32.0 °F 76% 30.41 in 10.0 mi Calm Calm - N/A   Clear
3:53 AM 41.0 °F - 30.9 °F 67% 30.41 in 10.0 mi Calm Calm - N/A   Clear
4:53 AM 36.0 °F 32.1 °F 30.0 °F 79% 30.40 in 9.0 mi South 4.6 mph - N/A   Clear
5:53 AM 37.0 °F - 30.0 °F 76% 30.41 in 10.0 mi Calm Calm - N/A   Clear
6:53 AM 39.0 °F - 30.9 °F 73% 30.43 in 8.0 mi Calm Calm - N/A   Clear
7:53 AM 44.1 °F - 35.1 °F 71% 30.44 in 10.0 mi Calm Calm - N/A   Clear
8:53 AM 50.0 °F - 34.0 °F 54% 30.45 in 10.0 mi Calm Calm - N/A   Clear
9:53 AM 55.0 °F - 35.1 °F 47% 30.44 in 10.0 mi SE 4.6 mph - N/A   Clear
10:53 AM 57.0 °F - 33.1 °F 40% 30.43 in 10.0 mi Calm Calm - N/A   Clear
11:53 AM 61.0 °F - 36.0 °F 39% 30.42 in 10.0 mi Calm Calm - N/A   Clear
12:53 PM 64.0 °F - 34.0 °F 33% 30.40 in 10.0 mi Variable 4.6 mph - N/A   Clear
1:53 PM 64.0 °F - 32.0 °F 30% 30.37 in 10.0 mi NNW 4.6 mph - N/A   Clear
2:53 PM 66.0 °F - 32.0 °F 28% 30.35 in 10.0 mi North 3.5 mph - N/A   Clear
3:53 PM 64.9 °F - 33.1 °F 31% 30.32 in 10.0 mi Variable 6.9 mph - N/A   Clear
4:53 PM 66.0 °F - 34.0 °F 30% 30.31 in 10.0 mi Calm Calm - N/A   Clear
5:53 PM 66.0 °F - 33.1 °F 29% 30.30 in 10.0 mi Calm Calm - N/A   Clear
6:53 PM 64.0 °F - 37.0 °F 37% 30.29 in 9.0 mi ESE 3.5 mph - N/A   Clear
7:53 PM 61.0 °F - 33.1 °F 35% 30.28 in 10.0 mi South 4.6 mph - N/A   Clear
8:53 PM 60.1 °F - 32.0 °F 35% 30.29 in 10.0 mi South 4.6 mph - N/A   Clear
9:53 PM 55.9 °F - 32.0 °F 40% 30.29 in 10.0 mi Calm Calm - N/A   Clear
10:53 PM 53.1 °F - 33.1 °F 47% 30.29 in 10.0 mi Calm Calm - N/A   Clear
11:53 PM 52.0 °F - 33.1 °F 49% 30.29 in 10.0 mi Calm Calm - N/A   Clear